[[{"header":{"parameterUnit":"m.s-1","parameterCategory":1,"la1":30.2991,"la2":30.254,"lo1":-89.0895,"lo2":-89.0444,"dy":0.0017,"dx":0.0017,"nx":28,"ny":28,"refTime":"2025-04-08T09:00:00:Z","depth":0,"parameterNumber":2,"parameterNumberName":"U-component_of_WINDS"},"data":[0,0,0,0,0,0,0,0,0,0,0,0,0,0,0,0,0,0,0,0,0,0,0,0,0,0,0,0,0,0,0,0,0,0,0,0,0,0,0,0,0,0,0,0,0,0,0,0,0,0,0,0,0,0,0,0,0,0,2.5062,2.5062,0,2.5124,2.5125,2.5126,2.5122,2.5121,2.512,2.5119,2.5184,2.5187,2.5189,0,0,0,0,0,0,0,0,0,0,0,0,0,2.4942,2.4944,2.5062,2.5062,2.5063,2.5124,2.5125,2.5126,2.5122,2.5121,2.512,2.5119,2.5183,2.5186,2.5189,0,0,0,0,0,0,0,0,0,0,0,0,0,2.4998,2.4945,2.5062,2.5069,2.507,2.5124,2.5125,2.5126,2.5122,2.5121,2.512,2.5118,2.5182,2.5186,2.519,2.5241,0,0,2.5201,2.5203,0,0,0,0,0,0,0,0,2.4995,2.5002,2.5067,2.5068,2.507,2.5114,2.5106,2.5164,2.5123,2.5103,2.5119,2.5118,2.5162,2.5167,2.5182,2.5244,2.5246,2.5202,2.5204,2.5206,2.5207,0,0,0,0,0,0,0,2.4991,2.5,2.5086,2.5068,2.507,2.507,2.5076,2.5117,2.5139,2.5104,2.5104,2.5111,2.5162,2.5178,2.5183,2.5247,2.5202,2.5205,2.5208,2.5209,2.5356,2.5357,0,0,0,0,0,0,2.4985,2.4996,2.5084,2.5088,2.5028,2.5073,2.508,2.5101,2.5139,2.5143,2.5113,2.5111,2.5172,2.5179,2.5186,2.5248,2.5206,2.5209,2.5212,2.5354,2.5356,2.5358,0,0,0,0,0,0,2.4982,2.4993,2.5082,2.5042,2.5054,2.5076,2.51,2.5103,2.5119,2.5145,2.5149,2.5125,2.5172,2.518,2.5227,2.525,2.5211,2.5215,2.5352,2.5355,2.5357,2.5374,0,0,0,0,0,0,2.4979,2.4992,2.5011,2.5043,2.5056,2.5122,2.5101,2.5105,2.5125,2.5124,2.5157,2.5161,2.5171,2.5222,2.5231,2.5255,2.5218,2.535,2.5353,2.5356,2.5371,2.5376,2.5381,0,0,0,0,0,2.4975,2.5013,2.5012,2.5023,2.508,2.5123,2.5131,2.5141,2.5127,2.5147,2.5164,2.516,2.5247,2.5226,2.5237,2.5263,2.5349,2.5352,2.5356,2.5369,2.5375,2.5381,0,0,0,0,0,0,2.4983,2.5017,2.5016,2.5066,2.5092,2.5122,2.5147,2.5147,2.5177,2.5174,2.5186,2.5194,2.5241,2.5257,2.5233,2.5315,2.5296,2.5302,2.5302,2.5309,2.5313,2.5308,2.5221,0,0,0,0,0,2.4991,2.5023,2.5051,2.5092,2.5105,2.5124,2.5143,2.5149,2.5176,2.5187,2.5207,2.5234,2.5268,2.5289,2.5321,2.5374,2.5381,2.5397,2.5402,2.5405,2.541,2.544,2.5447,2.5369,2.5369,2.5369,0,0,2.5007,2.503,2.5049,2.5095,2.5115,2.5148,2.5133,2.5169,2.5194,2.5193,2.5238,2.5254,2.5285,2.5335,2.5359,2.535,2.5434,2.541,2.5413,2.5415,2.5445,2.5452,2.5458,2.5372,2.5371,2.5371,0,0,2.5053,2.5073,2.511,2.5131,2.5163,2.5175,2.5184,2.5216,2.5226,2.5272,2.5272,2.5303,2.536,2.5382,2.5401,2.5458,2.5456,2.5468,2.5493,2.5522,2.5528,2.5533,2.5554,2.5561,2.5473,2.5473,2.5473,0,2.5069,2.5119,2.5129,2.5165,2.5186,2.5187,2.5225,2.5245,2.5285,2.53,2.529,2.5362,2.5383,2.5439,2.5453,2.5468,2.5479,2.5463,2.5526,2.5532,2.5537,2.5557,2.5564,2.5474,2.5474,2.5474,2.5474,0,2.5137,2.5172,2.5198,2.5237,2.526,2.5297,2.5314,2.5337,2.5341,2.5355,2.5403,2.5428,2.5466,2.548,2.5484,2.5537,2.5531,2.5523,2.5505,2.5546,2.5564,2.5572,2.5476,2.5475,2.5475,2.5475,0,0,2.5188,2.5234,2.5243,2.5262,2.5297,2.5325,2.5362,2.5399,2.5419,2.5447,2.5479,2.5528,2.5522,2.5544,2.5551,2.5577,2.5621,2.5566,2.5567,2.5575,2.5681,2.5686,2.5694,2.562,2.5622,2.5623,2.5678,0,2.5238,2.5304,2.5315,2.5373,2.5406,2.5408,2.5441,2.5467,2.5482,2.5512,2.5529,2.5564,2.5553,2.5566,2.5591,2.561,2.5642,2.5606,2.5651,2.5652,2.5642,2.5704,2.5709,2.576,2.5686,2.5687,2.5688,0,2.5304,2.5334,2.5395,2.5428,2.5442,2.5471,2.5507,2.5536,2.5566,2.5575,2.56,2.5605,2.5645,2.5625,2.5681,2.5657,2.5676,2.5688,2.569,2.5694,2.5672,2.5709,2.5776,2.5784,2.5699,2.5699,2.5698,0,2.5335,2.5392,2.5436,2.5451,2.549,2.5511,2.5528,2.5557,2.5579,2.561,2.5625,2.5661,2.568,2.5708,2.5723,2.5707,2.5778,2.576,2.5787,2.5787,2.5801,2.58,2.5871,2.5814,2.5814,2.5814,2.5814,0,2.5389,2.5426,2.545,2.5477,2.552,2.5533,2.5575,2.5592,2.5618,2.5649,2.5654,2.5684,2.5702,2.5734,2.5746,2.5791,2.58,2.5809,2.5811,2.5808,2.5807,2.582,2.5816,2.5816,2.5816,2.5815,2.5815,0,2.543,2.5448,2.5496,2.553,2.5539,2.5569,2.5598,2.5625,2.564,2.5679,2.569,2.5714,2.5752,2.577,2.5818,2.5826,2.5877,2.5877,2.5866,2.5867,2.5894,2.5891,2.5976,2.5988,2.5923,2.5924,2.5924,0,2.5463,2.5492,2.5529,2.555,2.5567,2.5601,2.5624,2.5639,2.5663,2.57,2.5723,2.5761,2.5793,2.5854,2.5877,2.5913,2.5915,2.5942,2.592,2.5916,2.5915,2.5913,2.5916,2.5946,2.5946,2.5947,2.5947,0,2.5519,2.5527,2.5558,2.5594,2.5621,2.565,2.5678,2.5695,2.5715,2.5742,2.5781,2.5805,2.5854,2.5893,2.5932,2.595,2.5953,2.5954,2.5962,2.5959,2.5951,2.5956,2.5877,2.5952,2.5951,2.5951,2.5951,2.5951,2.5557,2.5583,2.5613,2.5649,2.5672,2.5699,2.5726,2.5745,2.5778,2.5819,2.5826,2.5868,2.5899,2.5952,2.5972,2.6006,2.5999,2.6011,2.6014,2.6017,2.6018,2.5947,2.6013,2.6013,2.6013,2.6013,2.6012,0,2.5613,2.5633,2.5666,2.5705,2.5734,2.5734,2.5766,2.579,2.5826,2.5855,2.5886,2.5932,2.597,2.5996,2.6035,2.6057,2.6059,2.6067,2.6065,2.6069,2.6021,2.601,2.6064,2.6064,2.6064,2.6064,2.6064,2.6064,2.5645,2.5689,2.5701,2.5757,2.5777,2.5818,2.5836,2.5861,2.5885,2.5935,2.5967,2.5984,2.6012,2.6053,2.6088,2.6095,2.6109,2.6117,2.6123,2.6078,2.6072,2.6067,2.6057,2.612,2.612,2.6168,2.6169,2.6169]},{"header":{"parameterUnit":"m.s-1","parameterCategory":1,"la1":30.2991,"la2":30.254,"lo1":-89.0895,"lo2":-89.0444,"dy":0.0017,"dx":0.0017,"nx":28,"ny":28,"refTime":"2025-04-08T09:00:00:Z","depth":0,"parameterNumber":3,"parameterNumberName":"V-component_of_WINDS"},"data":[0,0,0,0,0,0,0,0,0,0,0,0,0,0,0,0,0,0,0,0,0,0,0,0,0,0,0,0,0,0,0,0,0,0,0,0,0,0,0,0,0,0,0,0,0,0,0,0,0,0,0,0,0,0,0,0,0,0,-3.9717,-3.9718,0,-3.9813,-3.9814,-3.9815,-3.9813,-3.9812,-3.981,-3.9809,-3.9906,-3.9909,-3.9913,0,0,0,0,0,0,0,0,0,0,0,0,0,-3.9532,-3.9535,-3.9717,-3.9719,-3.972,-3.9813,-3.9814,-3.9815,-3.9813,-3.9812,-3.981,-3.9809,-3.9905,-3.9909,-3.9914,0,0,0,0,0,0,0,0,0,0,0,0,0,-3.9618,-3.9536,-3.9717,-3.973,-3.9732,-3.9812,-3.9814,-3.9816,-3.9813,-3.9812,-3.981,-3.9808,-3.9903,-3.9909,-3.9914,-3.9988,0,0,-3.9932,-3.9934,0,0,0,0,0,0,0,0,-3.9613,-3.9625,-3.9727,-3.9729,-3.9732,-3.9799,-3.9784,-3.9873,-3.9814,-3.9783,-3.9809,-3.9807,-3.9872,-3.988,-3.9902,-3.9992,-3.9997,-3.9932,-3.9935,-3.9938,-3.9939,0,0,0,0,0,0,0,-3.9607,-3.9621,-3.9755,-3.9728,-3.9731,-3.973,-3.974,-3.9801,-3.9837,-3.9785,-3.9785,-3.9797,-3.9873,-3.9897,-3.9904,-3.9998,-3.9932,-3.9937,-3.994,-3.9943,-4.0151,-4.0153,0,0,0,0,0,0,-3.9599,-3.9616,-3.9752,-3.9758,-3.9667,-3.9735,-3.9747,-3.9779,-3.9836,-3.9843,-3.9798,-3.9796,-3.9888,-3.9898,-3.9908,-3.9996,-3.9938,-3.9943,-3.9946,-4.0149,-4.0152,-4.0154,0,0,0,0,0,0,-3.9595,-3.9611,-3.9748,-3.9687,-3.9704,-3.9741,-3.9777,-3.9782,-3.9806,-3.9846,-3.9852,-3.9816,-3.9887,-3.99,-3.9967,-3.9999,-3.9946,-3.9951,-4.0147,-4.015,-4.0153,-4.0173,0,0,0,0,0,0,-3.959,-3.961,-3.9638,-3.9688,-3.9708,-3.9807,-3.9779,-3.9785,-3.9816,-3.9814,-3.9864,-3.9871,-3.9886,-3.9959,-3.9973,-4.0006,-3.9955,-4.0144,-4.0148,-4.0152,-4.017,-4.0177,-4.0183,0,0,0,0,0,-3.9583,-3.9641,-3.964,-3.9656,-3.9744,-3.9809,-3.982,-3.9837,-3.9819,-3.9847,-3.9873,-3.9869,-3.9994,-3.9966,-3.9982,-4.0017,-4.0142,-4.0147,-4.0152,-4.0167,-4.0175,-4.0183,0,0,0,0,0,0,-3.9594,-3.9647,-3.9647,-3.9723,-3.9761,-3.9808,-3.9845,-3.9846,-3.989,-3.9887,-3.9905,-3.9917,-3.9984,-4.0008,-3.9976,-4.009,-4.0065,-4.0074,-4.0072,-4.008,-4.0086,-4.0078,-3.996,0,0,0,0,0,-3.9605,-3.9654,-3.9697,-3.976,-3.9779,-3.9809,-3.9838,-3.9847,-3.9888,-3.9904,-3.9934,-3.9974,-4.0021,-4.0052,-4.0099,-4.0174,-4.0184,-4.0206,-4.0212,-4.0217,-4.0223,-4.0263,-4.0272,-4.017,-4.017,-4.017,0,0,-3.9629,-3.9664,-3.9693,-3.9763,-3.9794,-3.9842,-3.9823,-3.9875,-3.9911,-3.9912,-3.9977,-4.0001,-4.0046,-4.0117,-4.015,-4.0139,-4.0254,-4.0223,-4.0227,-4.0231,-4.0269,-4.0278,-4.0287,-4.0173,-4.0173,-4.0172,0,0,-3.9696,-3.9729,-3.9783,-3.9814,-3.9861,-3.9881,-3.9894,-3.9941,-3.9957,-4.0023,-4.0024,-4.0067,-4.0149,-4.018,-4.0207,-4.0286,-4.0283,-4.03,-4.0333,-4.0371,-4.0379,-4.0386,-4.0412,-4.0421,-4.0307,-4.0307,-4.0307,0,-3.9719,-3.9793,-3.9811,-3.9863,-3.9893,-3.9896,-3.995,-3.998,-4.004,-4.006,-4.0047,-4.0149,-4.018,-4.0257,-4.0276,-4.0299,-4.0313,-4.0294,-4.0376,-4.0384,-4.0391,-4.0415,-4.0425,-4.0308,-4.0308,-4.0308,-4.0308,0,-3.9818,-3.9869,-3.9907,-3.9964,-3.9998,-4.0052,-4.0077,-4.0109,-4.0116,-4.0136,-4.0202,-4.024,-4.0292,-4.0312,-4.032,-4.039,-4.0381,-4.0372,-4.0348,-4.0402,-4.0425,-4.0435,-4.0311,-4.031,-4.031,-4.0309,0,0,-3.9893,-3.9959,-3.9973,-3.9998,-4.005,-4.0089,-4.0143,-4.0194,-4.0221,-4.0262,-4.0306,-4.0375,-4.0367,-4.0397,-4.0408,-4.0442,-4.0499,-4.0428,-4.043,-4.0438,-4.0576,-4.0581,-4.0592,-4.0498,-4.05,-4.0502,-4.0572,0,-3.9964,-4.0058,-4.0075,-4.0156,-4.0202,-4.0206,-4.0252,-4.0289,-4.0309,-4.0351,-4.0374,-4.0422,-4.0408,-4.0426,-4.046,-4.0485,-4.0526,-4.048,-4.0537,-4.0539,-4.0523,-4.0604,-4.061,-4.0674,-4.0581,-4.0583,-4.0584,0,-4.0059,-4.0102,-4.0187,-4.0232,-4.0252,-4.0293,-4.0341,-4.0381,-4.0422,-4.0435,-4.0468,-4.0475,-4.0529,-4.0504,-4.0577,-4.0545,-4.057,-4.0586,-4.0589,-4.0593,-4.0563,-4.0608,-4.0695,-4.0704,-4.0599,-4.0598,-4.0597,0,-4.0102,-4.0182,-4.0243,-4.0265,-4.0319,-4.0347,-4.0371,-4.041,-4.044,-4.0482,-4.0501,-4.0549,-4.0575,-4.0611,-4.063,-4.0611,-4.0702,-4.0679,-4.0712,-4.0712,-4.0729,-4.0728,-4.0819,-4.0749,-4.0749,-4.0749,-4.0749,0,-4.0177,-4.0229,-4.0262,-4.03,-4.0357,-4.0377,-4.0433,-4.0457,-4.0492,-4.0533,-4.054,-4.0578,-4.0603,-4.0644,-4.066,-4.0717,-4.0729,-4.074,-4.0743,-4.0738,-4.0736,-4.0752,-4.0748,-4.0752,-4.0751,-4.0751,-4.075,0,-4.0235,-4.0259,-4.0326,-4.0371,-4.0384,-4.0424,-4.0463,-4.0499,-4.052,-4.0572,-4.0585,-4.0617,-4.0667,-4.069,-4.0751,-4.0762,-4.0826,-4.0827,-4.0812,-4.0812,-4.0844,-4.0839,-4.0947,-4.0961,-4.0884,-4.0885,-4.0886,0,-4.028,-4.032,-4.0369,-4.0397,-4.0422,-4.0467,-4.0497,-4.0518,-4.0549,-4.0598,-4.0628,-4.0677,-4.0718,-4.0796,-4.0825,-4.0871,-4.0872,-4.0907,-4.0879,-4.0872,-4.087,-4.0866,-4.0869,-4.0911,-4.0912,-4.0912,-4.0913,0,-4.0357,-4.0367,-4.041,-4.0457,-4.0492,-4.0531,-4.0568,-4.0591,-4.0617,-4.0652,-4.0702,-4.0734,-4.0796,-4.0844,-4.0893,-4.0917,-4.0919,-4.0922,-4.0931,-4.0925,-4.0914,-4.0918,-4.0823,-4.0918,-4.0918,-4.0918,-4.0917,-4.0917,-4.0408,-4.0442,-4.0482,-4.053,-4.056,-4.0595,-4.063,-4.0655,-4.0698,-4.075,-4.076,-4.0813,-4.0852,-4.0917,-4.0942,-4.0984,-4.0976,-4.099,-4.0994,-4.0996,-4.0997,-4.0909,-4.0993,-4.0993,-4.0993,-4.0993,-4.0992,0,-4.0483,-4.0509,-4.0552,-4.0604,-4.0641,-4.0641,-4.0682,-4.0712,-4.0759,-4.0795,-4.0835,-4.0892,-4.0939,-4.0972,-4.1019,-4.1046,-4.1047,-4.1057,-4.1054,-4.1059,-4.1003,-4.0988,-4.1054,-4.1054,-4.1054,-4.1054,-4.1054,-4.1054,-4.0526,-4.0584,-4.0598,-4.0671,-4.0697,-4.0749,-4.0772,-4.0803,-4.0832,-4.0896,-4.0935,-4.0956,-4.099,-4.104,-4.1083,-4.1091,-4.1107,-4.1116,-4.1124,-4.107,-4.1063,-4.1057,-4.1043,-4.112,-4.112,-4.1177,-4.1177,-4.1178]}]]